User: anonymous   Login
Location: Village de las Huertas
(35.3014°N, 106.4095°W)
Time: 13:19:14
(UTC+00:00)
Language:

Cosmos 1892 Rocket - Orbit

View from above orbital plane
View from above orbital plane
View from above satellite
View from above satellite

Ground track
Ground track

The orbit data is extracted from the following two-line orbital elements,

1 18422U 87088B   21019.78688403  .00000070  00000-0  56457-5 0  9994
2 18422  82.5107  26.7894 0021112  76.5401  96.2769 14.83058030775266
Epoch (UTC): 19 January 2021 18:53:06
Eccentricity: 0.0021112
inclination: 82.5107°
perigee height: 605 km
apogee height: 634 km
right ascension of ascending node: 26.7894°
argument of perigee: 76.5401°
revolutions per day: 14.83058030
mean anomaly at epoch: 96.2769°
orbit number at epoch: 77526

The dashed part of the orbit path shows where the satellite is in the earth's shadow,  

DLR